Flag for Canada Weather past 2 weeks in Hamilton, Ontario, Canada

Now
61 °F

Broken clouds.


Feels Like: 61 °F
Forecast: 50 / 64 °F
Wind: 10 mph from Northwest

Location: Hamilton Airport

Current Time: Sep 16, 2014 at 1:58:17 PM

Latest Report: Sep 16, 2014 at 1:00 PM


Visibility: 15 mi

Pressure: 30.08 "Hg

Humidity: 52%

Dew point: 43 °F

Location of HamiltonLocation

Historic Weather in Hamilton — Graph

°F

Hamilton temperature yesterday

Maximum temperature yesterday: 63 °F (at 12:00 PM)
Minimum temperature yesterday: 45 °F (at 6:00 AM)
Average temperature yesterday: 54 °F

Past Weeks' High & Low Weather Summary

 TemperatureHumidityPressure
High84 °F (Sep 5, 3:00 PM)100% (Sep 2, 12:00 AM)30.36 "Hg (Sep 2, 12:00 AM)
Low41 °F (Sep 14, 6:00 AM)46% (Sep 7, 3:00 PM)29.55 "Hg (Sep 11, 4:00 AM)
Average62 °F82%30.05 "Hg
* Reported Sep 1 12:00 Noon — Sep 16 12:00 Noon, Hamilton, Weather by CustomWeather, © 2014

Note: Actual official high and low records may vary slightly from our data, if they occured in-between our weather recording intervals... More about our weather records

Advertising

Hamilton weather history for previous 24 hours

 ConditionsComfort  
Time TempWeatherWind HumidityBarometerVisibility
12:00 PM
Sep 16
61 °FPassing clouds.9 mph59%30.09 "Hg15 mi
11:00 AM59 °FPassing clouds.7 mph68%30.11 "Hg15 mi
10:00 AM57 °FPassing clouds.12 mph72%30.12 "Hg15 mi
9:00 AM54 °FPassing clouds.8 mph88%30.11 "Hg15 mi
8:00 AM52 °FScattered clouds.3 mph94%30.10 "Hg15 mi
7:00 AM50 °FPartly cloudy.5 mph100%30.09 "Hg15 mi
6:00 AM52 °FPassing clouds.6 mph94%30.07 "Hg15 mi
5:00 AM52 °FMostly cloudy.5 mph94%30.06 "Hg15 mi
4:00 AM52 °FPartly cloudy.6 mph94%30.05 "Hg15 mi
3:00 AM52 °FOvercast.3 mph94%30.04 "Hg15 mi
2:00 AM52 °FMostly cloudy.3 mph100%30.04 "Hg10 mi
1:00 AM54 °FMostly cloudy.6 mph94%30.04 "Hg10 mi
12:55 AM54 °FMostly cloudy.5 mph94%30.04 "Hg10 mi
12:00 AM52 °FSprinkles. Mostly cloudy.3 mph100%30.05 "Hg12 mi
11:00 PM
Sep 15
54 °FOvercast.6 mph94%30.06 "Hg12 mi
10:00 PM54 °FOvercast.5 mph94%30.06 "Hg15 mi
9:00 PM54 °FMostly cloudy.3 mph94%30.07 "Hg15 mi
8:00 PM54 °FMore clouds than sun.2 mph94%30.06 "Hg12 mi
7:00 PM54 °FCloudy.3 mph94%30.07 "Hg10 mi
6:00 PM55 °FLight rain. Fog.9 mph94%30.09 "Hg3 mi
5:00 PM57 °FSprinkles. Cloudy.9 mph82%30.09 "Hg12 mi
4:00 PM59 °FCloudy.10 mph77%30.10 "Hg15 mi
3:00 PM59 °FMore clouds than sun.9 mph77%30.10 "Hg15 mi
2:00 PM61 °FMostly cloudy.9 mph68%30.11 "Hg15 mi
1:00 PM63 °FMore clouds than sun.14 mph59%30.14 "Hg15 mi
Weather by CustomWeather, © 2014

See weather overviewHow to use our weather pages